[[{"header":{"parameterUnit":"m.s-1","parameterCategory":2,"la1":30.2991,"la2":30.254,"lo1":-89.0895,"lo2":-89.0444,"dy":0.0017,"dx":0.0017,"nx":28,"ny":28,"refTime":"2025-07-21T09:00:00:Z","depth":"0","parameterNumber":2,"parameterNumberName":"U-component_of_CURRENTS"},"data":[0,0,0,0,0,0,0,0,0,0,0,0,0,0,0,0,0,0,0,0,0,0,0,0,0,0,0,0,0,0,0,0,0,0,0,0,0,0,0,0,0,0,0,0,0,0,0,0,0,0,0,0,0,0,0,0,0,0,0.2667,0.2667,0,0.2699,0.2699,0.2699,0.2691,0.269,0.269,0.269,0.2652,0.2651,0.2651,0,0,0,0,0,0,0,0,0,0,0,0,0,0.2574,0.2576,0.2667,0.2667,0.2668,0.2699,0.2699,0.2699,0.2691,0.269,0.269,0.2689,0.2652,0.2652,0.2651,0,0,0,0,0,0,0,0,0,0,0,0,0,0.2608,0.2576,0.2666,0.267,0.2671,0.2699,0.2699,0.2699,0.2691,0.269,0.269,0.2689,0.2653,0.2652,0.2651,0.2653,0,0,0.2647,0.2647,0,0,0,0,0,0,0,0,0.2606,0.261,0.2669,0.267,0.2671,0.2693,0.2653,0.2681,0.2691,0.2679,0.269,0.2689,0.2662,0.266,0.2663,0.2651,0.265,0.2647,0.2647,0.2646,0.2646,0,0,0,0,0,0,0,0.2603,0.2609,0.2676,0.267,0.2671,0.2662,0.2666,0.2658,0.2669,0.268,0.2681,0.269,0.2662,0.2664,0.2662,0.2649,0.2647,0.2646,0.2646,0.2645,0.2681,0.2682,0,0,0,0,0,0,0.2609,0.2607,0.2675,0.2677,0.2641,0.2665,0.2669,0.2684,0.2671,0.267,0.2691,0.269,0.2666,0.2663,0.2661,0.2689,0.2646,0.2645,0.2645,0.2679,0.2681,0.2683,0,0,0,0,0,0,0.2607,0.2615,0.2673,0.2645,0.2652,0.2667,0.2683,0.2685,0.2692,0.268,0.2677,0.2697,0.2666,0.2662,0.2666,0.2687,0.2645,0.2644,0.2677,0.268,0.2682,0.2729,0,0,0,0,0,0,0.2604,0.2614,0.2624,0.2646,0.2654,0.2697,0.2684,0.2686,0.27,0.2699,0.2684,0.268,0.2665,0.2668,0.2665,0.2684,0.2643,0.2675,0.2678,0.2681,0.2726,0.2733,0.2739,0,0,0,0,0,0.2601,0.2615,0.2624,0.2632,0.2669,0.2698,0.2702,0.2707,0.2701,0.271,0.2703,0.2681,0.2685,0.2668,0.2664,0.2684,0.2674,0.2677,0.2681,0.2723,0.2732,0.2739,0,0,0,0,0,0,0.2569,0.2617,0.2627,0.2652,0.2679,0.2698,0.2707,0.2713,0.2716,0.2713,0.2694,0.269,0.2703,0.2691,0.2673,0.2706,0.2679,0.2682,0.2712,0.272,0.2727,0.2756,0.2642,0,0,0,0,0,0.2572,0.26,0.2638,0.2656,0.2673,0.2691,0.2703,0.2712,0.2721,0.2722,0.2715,0.2712,0.2716,0.2715,0.2714,0.2726,0.2833,0.274,0.2747,0.2753,0.2777,0.299,0.302,0.2694,0.2694,0.2694,0,0,0.2563,0.2594,0.2607,0.2653,0.2671,0.2699,0.2696,0.2721,0.274,0.2717,0.2731,0.2731,0.2726,0.2744,0.2749,0.2734,0.2904,0.2757,0.2762,0.2783,0.2997,0.303,0.3059,0.2697,0.2696,0.2696,0,0,0.2566,0.259,0.2619,0.2645,0.2687,0.2703,0.2714,0.2744,0.2752,0.2771,0.2766,0.2793,0.2778,0.2801,0.2803,0.2851,0.2934,0.2837,0.2892,0.3099,0.3129,0.3156,0.3351,0.3396,0.284,0.284,0.284,0,0.2553,0.26,0.2628,0.2663,0.2688,0.2707,0.274,0.2753,0.2778,0.2808,0.2779,0.2834,0.2815,0.2878,0.2883,0.2868,0.3004,0.2856,0.3113,0.3142,0.317,0.3363,0.3412,0.2843,0.2843,0.2842,0.2842,0,0.2585,0.2619,0.2636,0.2691,0.2717,0.2748,0.278,0.2806,0.2816,0.2846,0.2909,0.2909,0.2957,0.2944,0.2915,0.308,0.3121,0.3102,0.31,0.3207,0.3402,0.3452,0.2847,0.2846,0.2845,0.2844,0,0,0.2593,0.2647,0.2657,0.2698,0.2739,0.2778,0.2805,0.287,0.2938,0.2946,0.3053,0.3037,0.307,0.3079,0.3071,0.3214,0.3502,0.3236,0.3246,0.3443,0.3992,0.399,0.4044,0.3549,0.3558,0.3564,0.4058,0,0.262,0.2684,0.2697,0.2765,0.282,0.2838,0.2879,0.2936,0.2987,0.3095,0.3124,0.3215,0.3112,0.317,0.3289,0.3459,0.3634,0.3371,0.3847,0.3862,0.3859,0.4102,0.3968,0.4394,0.4107,0.4115,0.4121,0,0.2696,0.2721,0.2789,0.2857,0.288,0.2916,0.3031,0.3065,0.3192,0.3244,0.3332,0.3379,0.3542,0.3465,0.3826,0.3676,0.3843,0.3967,0.399,0.4008,0.3954,0.4237,0.4496,0.4372,0.4199,0.4193,0.4187,0,0.2787,0.2817,0.2875,0.2896,0.2955,0.2997,0.3028,0.3134,0.3236,0.3384,0.3518,0.3651,0.3809,0.4008,0.4165,0.4071,0.4603,0.4517,0.4679,0.468,0.4669,0.4654,0.4874,0.4842,0.4841,0.484,0.4838,0,0.2887,0.2957,0.2924,0.298,0.3084,0.3073,0.3231,0.328,0.3423,0.3568,0.3623,0.3788,0.3971,0.4227,0.4333,0.4672,0.4758,0.4776,0.4843,0.4678,0.4659,0.4624,0.4496,0.4858,0.4854,0.485,0.4847,0,0.3091,0.3046,0.3147,0.3151,0.3166,0.3265,0.3388,0.3478,0.3594,0.3803,0.3875,0.4059,0.4355,0.4527,0.4902,0.495,0.5108,0.5307,0.508,0.511,0.5104,0.4981,0.5087,0.4949,0.5638,0.5641,0.5644,0,0.3228,0.328,0.3309,0.3331,0.3355,0.346,0.3514,0.3601,0.3684,0.3932,0.4028,0.4366,0.4532,0.5067,0.523,0.5532,0.5277,0.5591,0.5365,0.5171,0.5087,0.4773,0.4621,0.5392,0.5393,0.5394,0.5394,0,0.3445,0.3442,0.3459,0.3511,0.3557,0.3644,0.3702,0.3811,0.3873,0.405,0.4218,0.4385,0.4838,0.5076,0.5461,0.5578,0.5306,0.5613,0.5506,0.5018,0.4606,0.4478,0.4976,0.5398,0.5398,0.5397,0.5397,0.5397,0.3556,0.361,0.3551,0.3626,0.3669,0.3694,0.3735,0.3779,0.3912,0.4032,0.4243,0.4453,0.4858,0.5365,0.5459,0.5559,0.5402,0.5477,0.5392,0.5128,0.4829,0.5325,0.573,0.5731,0.5732,0.5734,0.5735,0,0.3565,0.3565,0.3632,0.3625,0.3644,0.368,0.3726,0.3705,0.3754,0.3978,0.4122,0.4529,0.4862,0.5151,0.5435,0.5351,0.5064,0.5231,0.4754,0.4652,0.5251,0.5068,0.5231,0.5231,0.5231,0.5231,0.5231,0.5231,0.3519,0.3515,0.3542,0.3523,0.3535,0.348,0.3472,0.348,0.3593,0.3768,0.3977,0.4216,0.4643,0.5082,0.5135,0.5047,0.4644,0.4509,0.4432,0.4841,0.4853,0.4865,0.4667,0.4743,0.4742,0.3658,0.365,0.3643]},{"header":{"parameterUnit":"m.s-1","parameterCategory":2,"la1":30.2991,"la2":30.254,"lo1":-89.0895,"lo2":-89.0444,"dy":0.0017,"dx":0.0017,"nx":28,"ny":28,"refTime":"2025-07-21T09:00:00:Z","depth":"0","parameterNumber":3,"parameterNumberName":"V-component_of_CURRENTS"},"data":[0,0,0,0,0,0,0,0,0,0,0,0,0,0,0,0,0,0,0,0,0,0,0,0,0,0,0,0,0,0,0,0,0,0,0,0,0,0,0,0,0,0,0,0,0,0,0,0,0,0,0,0,0,0,0,0,0,0,-0.0912,-0.0913,0,-0.1027,-0.1028,-0.103,-0.1083,-0.1083,-0.1083,-0.1083,-0.124,-0.1244,-0.1248,0,0,0,0,0,0,0,0,0,0,0,0,0,-0.0792,-0.0794,-0.0912,-0.0913,-0.0915,-0.1027,-0.1028,-0.103,-0.1083,-0.1083,-0.1083,-0.1083,-0.1238,-0.1243,-0.1249,0,0,0,0,0,0,0,0,0,0,0,0,0,-0.0871,-0.0794,-0.0912,-0.0954,-0.0958,-0.1026,-0.1028,-0.103,-0.1083,-0.1083,-0.1083,-0.1083,-0.1236,-0.1243,-0.1249,-0.1296,0,0,-0.1269,-0.1272,0,0,0,0,0,0,0,0,-0.0866,-0.0875,-0.0946,-0.0951,-0.0956,-0.1039,-0.1044,-0.1121,-0.1084,-0.1038,-0.1083,-0.1082,-0.1176,-0.1187,-0.1211,-0.1304,-0.131,-0.127,-0.1274,-0.1277,-0.1279,0,0,0,0,0,0,0,-0.086,-0.0871,-0.0959,-0.0947,-0.0954,-0.0985,-0.0995,-0.1059,-0.1109,-0.1042,-0.1045,-0.1056,-0.1179,-0.1205,-0.1215,-0.1313,-0.127,-0.1276,-0.128,-0.1282,-0.144,-0.144,0,0,0,0,0,0,-0.0841,-0.0865,-0.0955,-0.0962,-0.0908,-0.0987,-0.0999,-0.1014,-0.1108,-0.1121,-0.1056,-0.1058,-0.1194,-0.1208,-0.1221,-0.1256,-0.1277,-0.1283,-0.1287,-0.1439,-0.144,-0.144,0,0,0,0,0,0,-0.0838,-0.0848,-0.0951,-0.0915,-0.093,-0.0989,-0.1006,-0.1016,-0.1042,-0.1118,-0.1132,-0.1069,-0.1194,-0.1212,-0.1275,-0.1264,-0.1286,-0.1292,-0.1439,-0.144,-0.144,-0.1344,0,0,0,0,0,0,-0.0834,-0.0847,-0.0852,-0.0914,-0.0931,-0.0989,-0.1007,-0.1019,-0.1048,-0.1051,-0.1134,-0.1149,-0.1195,-0.1265,-0.1281,-0.1273,-0.1297,-0.1439,-0.1439,-0.144,-0.1346,-0.1341,-0.1336,0,0,0,0,0,-0.083,-0.0841,-0.0852,-0.0863,-0.0937,-0.0989,-0.1002,-0.1043,-0.1048,-0.1063,-0.1114,-0.1146,-0.1279,-0.1271,-0.129,-0.1283,-0.1439,-0.1439,-0.144,-0.1349,-0.1342,-0.1336,0,0,0,0,0,0,-0.0794,-0.0849,-0.0863,-0.089,-0.0933,-0.0998,-0.1015,-0.104,-0.1093,-0.1094,-0.1159,-0.1178,-0.1228,-0.1275,-0.1264,-0.1331,-0.1361,-0.1365,-0.1285,-0.1279,-0.1274,-0.1184,-0.1302,0,0,0,0,0,-0.0787,-0.0809,-0.0864,-0.0885,-0.0903,-0.0956,-0.0982,-0.1009,-0.1062,-0.1084,-0.1139,-0.1196,-0.1247,-0.1277,-0.1336,-0.1379,-0.1313,-0.1386,-0.138,-0.1375,-0.1317,-0.1189,-0.1163,-0.1442,-0.1442,-0.1442,0,0,-0.0777,-0.0811,-0.0823,-0.0878,-0.0914,-0.0937,-0.0972,-0.1008,-0.1019,-0.1095,-0.1131,-0.1187,-0.1257,-0.13,-0.1325,-0.1335,-0.127,-0.1376,-0.1371,-0.1314,-0.1186,-0.1157,-0.1132,-0.1442,-0.1442,-0.1442,0,0,-0.0767,-0.0799,-0.081,-0.0843,-0.0891,-0.0924,-0.093,-0.0991,-0.101,-0.106,-0.1103,-0.1132,-0.1242,-0.1256,-0.1286,-0.1286,-0.1249,-0.133,-0.1224,-0.1101,-0.1074,-0.105,-0.0945,-0.0912,-0.1321,-0.132,-0.132,0,-0.0748,-0.0765,-0.0822,-0.084,-0.0843,-0.0911,-0.0905,-0.0951,-0.1022,-0.0995,-0.1061,-0.1113,-0.1204,-0.1178,-0.1199,-0.1265,-0.1188,-0.1241,-0.1084,-0.1059,-0.1035,-0.0933,-0.0898,-0.1316,-0.1316,-0.1317,-0.1317,0,-0.0746,-0.0753,-0.0762,-0.0795,-0.0818,-0.0826,-0.0879,-0.089,-0.0921,-0.0935,-0.0921,-0.1017,-0.1011,-0.1081,-0.1158,-0.1047,-0.1045,-0.109,-0.108,-0.0999,-0.0901,-0.0865,-0.1309,-0.1311,-0.1312,-0.1314,0,0,-0.0673,-0.0743,-0.0734,-0.0702,-0.0778,-0.0765,-0.0792,-0.0774,-0.0689,-0.0792,-0.0667,-0.0815,-0.0805,-0.0835,-0.091,-0.0851,-0.0681,-0.0899,-0.0895,-0.0756,-0.0387,-0.0438,-0.0405,-0.0678,-0.0672,-0.0666,-0.0387,0,-0.0627,-0.0615,-0.0678,-0.0625,-0.0594,-0.0648,-0.0628,-0.0624,-0.062,-0.0527,-0.059,-0.0532,-0.073,-0.0685,-0.0664,-0.0654,-0.0579,-0.0751,-0.0517,-0.051,-0.0532,-0.0363,-0.0433,-0.0193,-0.0353,-0.0347,-0.0342,0,-0.0551,-0.055,-0.0496,-0.0443,-0.043,-0.0411,-0.029,-0.0287,-0.022,-0.0202,-0.0163,-0.0194,-0.0144,-0.0309,-0.0212,-0.0301,-0.0324,-0.0343,-0.0332,-0.0371,-0.0492,-0.0301,-0.0123,-0.0425,-0.0288,-0.0292,-0.0296,0,-0.0359,-0.0376,-0.0302,-0.0301,-0.0295,-0.0231,-0.0208,-0.0148,-0.0057,0.0058,0.0175,0.0191,0.0271,0.0246,0.012,0.0012,0.0256,0.0112,0.005,0.0045,0.0038,0.0021,-0.0006,0.0236,0.0235,0.0235,0.0234,0,-0.0218,-0.0135,-0.0189,-0.013,0.0024,-0.0035,0.0168,0.0192,0.0308,0.0469,0.0393,0.0539,0.0423,0.0485,0.0331,0.0328,0.0438,0.0151,0.015,0.0059,0.0041,-0.0185,-0.0375,0.0245,0.0243,0.0241,0.0239,0,0.0034,-0.0027,0.0091,0.0106,0.0131,0.0269,0.0384,0.0526,0.0601,0.0824,0.0881,0.0914,0.0973,0.0841,0.0845,0.0646,0.046,0.0569,0.0452,0.0429,0.0029,-0.0153,-0.0084,-0.0215,0.0593,0.0594,0.0594,0,0.0178,0.0245,0.0303,0.037,0.0392,0.0541,0.0641,0.0697,0.0827,0.103,0.1158,0.128,0.1332,0.132,0.1042,0.0887,0.0558,0.0684,0.0431,0.0077,-0.0125,-0.0261,-0.0388,0.0461,0.046,0.046,0.046,0,0.0437,0.0445,0.0505,0.0621,0.073,0.0869,0.0997,0.1135,0.1207,0.1376,0.1554,0.1628,0.1583,0.1416,0.1184,0.0973,0.043,0.067,0.0371,-0.0143,-0.0346,-0.0499,0.0176,0.0457,0.0457,0.0458,0.0458,0.0458,0.0623,0.0703,0.0722,0.0848,0.0968,0.1108,0.1225,0.1345,0.1535,0.173,0.1805,0.1961,0.1714,0.1378,0.1034,0.0399,0.0412,0.0154,-0.0,-0.0075,-0.0316,0.0338,0.0546,0.0547,0.0547,0.0548,0.0548,0,0.0758,0.0784,0.0918,0.1015,0.1148,0.1182,0.1375,0.1471,0.1637,0.1901,0.204,0.2113,0.164,0.1157,0.0382,-0.0152,-0.0416,-0.046,-0.0702,-0.0774,-0.0108,-0.0244,-0.028,-0.028,-0.028,-0.0279,-0.0279,-0.0279,0.0806,0.0885,0.0913,0.109,0.1183,0.1335,0.1427,0.1593,0.1793,0.2111,0.2329,0.2494,0.2205,0.061,-0.0545,-0.0845,-0.1279,-0.1333,-0.1496,-0.1147,-0.1105,-0.1064,-0.1237,-0.1481,-0.1482,-0.2143,-0.215,-0.2155]}],[{"header":{"parameterUnit":"m.s-1","parameterCategory":2,"la1":30.2991,"la2":30.254,"lo1":-89.0895,"lo2":-89.0444,"dy":0.0017,"dx":0.0017,"nx":28,"ny":28,"refTime":"2025-07-21T09:00:00:Z","depth":"2","parameterNumber":2,"parameterNumberName":"U-component_of_CURRENTS"},"data":[0,0,0,0,0,0,0,0,0,0,0,0,0,0,0,0,0,0,0,0,0,0,0,0,0,0,0,0,0,0,0,0,0,0,0,0,0,0,0,0,0,0,0,0,0,0,0,0,0,0,0,0,0,0,0,0,0,0,0.1929,0.193,0,0.1993,0.1993,0.1994,0.2,0.2,0.1999,0.1999,0.2005,0.2006,0.2006,0,0,0,0,0,0,0,0,0,0,0,0,0,0.1815,0.1817,0.1929,0.193,0.1931,0.1993,0.1993,0.1994,0.2,0.2,0.1999,0.1999,0.2005,0.2006,0.2006,0,0,0,0,0,0,0,0,0,0,0,0,0,0.1869,0.1818,0.1929,0.1943,0.1945,0.1992,0.1993,0.1994,0.2001,0.2,0.1999,0.1998,0.2005,0.2006,0.2007,0.2028,0,0,0.2009,0.201,0,0,0,0,0,0,0,0,0.1866,0.1873,0.194,0.1942,0.1944,0.1989,0.1955,0.2003,0.2001,0.1978,0.1999,0.1998,0.1996,0.1998,0.201,0.2028,0.2028,0.201,0.201,0.2011,0.2011,0,0,0,0,0,0,0,0.1862,0.187,0.1953,0.1941,0.1944,0.1946,0.1953,0.1965,0.1988,0.198,0.1981,0.199,0.1996,0.2009,0.201,0.2028,0.201,0.201,0.2011,0.2011,0.2088,0.2089,0,0,0,0,0,0,0.1859,0.1867,0.1951,0.1955,0.1904,0.1949,0.1956,0.1974,0.1989,0.1992,0.1991,0.1991,0.2008,0.2009,0.201,0.2061,0.2011,0.2011,0.2012,0.2086,0.2088,0.209,0,0,0,0,0,0,0.1856,0.1866,0.1948,0.1913,0.1924,0.1952,0.1972,0.1976,0.1991,0.1999,0.2,0.2002,0.2007,0.2009,0.2037,0.206,0.2012,0.2013,0.2085,0.2087,0.2089,0.2147,0,0,0,0,0,0,0.1853,0.1865,0.1879,0.1913,0.1926,0.1984,0.1973,0.1978,0.1999,0.1999,0.2009,0.2009,0.2007,0.2036,0.2038,0.2061,0.2014,0.2083,0.2086,0.2088,0.2143,0.2151,0.2157,0,0,0,0,0,0.1848,0.1868,0.1879,0.1889,0.1944,0.1985,0.1992,0.2007,0.2,0.2016,0.2027,0.2008,0.2054,0.2038,0.204,0.2064,0.2082,0.2085,0.2088,0.214,0.2149,0.2157,0,0,0,0,0,0,0.1822,0.1872,0.1884,0.1918,0.1953,0.1986,0.2002,0.2012,0.2035,0.2032,0.2031,0.2033,0.2068,0.2059,0.2042,0.2094,0.2063,0.2067,0.2102,0.2111,0.2118,0.2119,0.2014,0,0,0,0,0,0.1826,0.1856,0.19,0.1927,0.1944,0.1974,0.1992,0.2007,0.203,0.2039,0.2049,0.2061,0.2084,0.2091,0.2108,0.2136,0.2178,0.2152,0.2159,0.2165,0.2168,0.228,0.2299,0.2101,0.2101,0.21,0,0,0.1821,0.1854,0.187,0.1924,0.1949,0.1985,0.1983,0.2015,0.2046,0.2036,0.2075,0.2089,0.2099,0.2137,0.215,0.2131,0.2245,0.2169,0.2174,0.2174,0.2286,0.2305,0.2323,0.2103,0.2102,0.2102,0,0,0.1828,0.1859,0.1887,0.1922,0.1969,0.1993,0.2004,0.2046,0.2064,0.2107,0.2112,0.2139,0.2169,0.2186,0.2197,0.2251,0.2283,0.2256,0.2289,0.2398,0.2416,0.2432,0.2519,0.2542,0.2255,0.2255,0.2255,0,0.182,0.1866,0.19,0.1938,0.1966,0.1997,0.203,0.2063,0.2109,0.2135,0.2124,0.2199,0.2193,0.2255,0.2267,0.2267,0.2337,0.2255,0.241,0.2426,0.2442,0.2527,0.2552,0.2258,0.2257,0.2257,0.2257,0,0.1851,0.189,0.1908,0.197,0.2004,0.2039,0.2088,0.2125,0.2147,0.2183,0.225,0.2266,0.2312,0.2313,0.2301,0.2403,0.2421,0.2413,0.2391,0.2466,0.255,0.2576,0.2262,0.2261,0.226,0.226,0,0,0.1825,0.1912,0.192,0.1957,0.2023,0.2059,0.2113,0.2178,0.2236,0.2273,0.2356,0.2374,0.2396,0.2409,0.2414,0.2484,0.2636,0.2494,0.2499,0.2585,0.2893,0.278,0.2796,0.2678,0.2683,0.2686,0.2912,0,0.1838,0.191,0.1949,0.2017,0.2056,0.2106,0.2162,0.2226,0.2287,0.238,0.241,0.2489,0.2433,0.2476,0.2538,0.2633,0.2705,0.2576,0.2802,0.2808,0.2703,0.2822,0.2575,0.2744,0.2936,0.294,0.2943,0,0.1854,0.1904,0.1966,0.2056,0.2077,0.2123,0.2228,0.2286,0.2409,0.2463,0.2544,0.2595,0.2699,0.2645,0.2837,0.2774,0.2829,0.2882,0.2892,0.2781,0.2742,0.2698,0.2782,0.2985,0.2982,0.2979,0.2976,0,0.1826,0.1916,0.1966,0.1997,0.21,0.2139,0.2196,0.2308,0.2398,0.2538,0.2642,0.2748,0.2859,0.2946,0.3018,0.2973,0.3236,0.3191,0.3135,0.3128,0.2953,0.2922,0.3323,0.3323,0.3322,0.3321,0.3321,0,0.1826,0.187,0.1961,0.1994,0.2077,0.2137,0.2251,0.2325,0.2479,0.2601,0.2691,0.2824,0.2952,0.3095,0.3116,0.3212,0.3324,0.317,0.3192,0.2963,0.2932,0.3153,0.313,0.333,0.3328,0.3326,0.3325,0,0.1796,0.1852,0.1925,0.2028,0.207,0.213,0.2297,0.2374,0.2526,0.2703,0.2765,0.2974,0.3146,0.3235,0.3412,0.3359,0.3436,0.3424,0.3128,0.3108,0.3234,0.3212,0.3426,0.3424,0.3422,0.3421,0.342,0,0.1782,0.1815,0.1945,0.1987,0.2037,0.2146,0.2213,0.2377,0.2473,0.2772,0.2848,0.3095,0.3207,0.3422,0.3377,0.3418,0.3465,0.3206,0.3036,0.3252,0.3253,0.3232,0.3213,0.2849,0.2843,0.2839,0.2835,0,0.1742,0.1793,0.1847,0.1946,0.2019,0.2131,0.2244,0.2337,0.2526,0.2697,0.2911,0.3042,0.3229,0.3167,0.3204,0.3176,0.3172,0.3109,0.3488,0.2826,0.2717,0.2713,0.2712,0.2793,0.2798,0.2801,0.2803,0.2805,0.1688,0.1721,0.1782,0.1872,0.1963,0.2045,0.2091,0.222,0.237,0.2521,0.2739,0.282,0.2905,0.281,0.2788,0.2778,0.2953,0.2832,0.2844,0.2861,0.2719,0.2609,0.2641,0.2644,0.2646,0.2649,0.2651,0,0.1576,0.1625,0.1695,0.1776,0.1818,0.1928,0.2047,0.2059,0.2146,0.2299,0.241,0.2244,0.2252,0.238,0.2293,0.2313,0.227,0.2257,0.218,0.2223,0.2261,0.2084,0.184,0.1838,0.1835,0.1833,0,0,0.1502,0.151,0.1556,0.1583,0.1656,0.1679,0.1719,0.177,0.1859,0.1853,0.187,0.198,0.2221,0.191,0.1942,0.1895,0.2031,0.1834,0.2485,0.2431,0.2465,0.2599,0.2377,0,0,0,0,0]},{"header":{"parameterUnit":"m.s-1","parameterCategory":2,"la1":30.2991,"la2":30.254,"lo1":-89.0895,"lo2":-89.0444,"dy":0.0017,"dx":0.0017,"nx":28,"ny":28,"refTime":"2025-07-21T09:00:00:Z","depth":"2","parameterNumber":3,"parameterNumberName":"V-component_of_CURRENTS"},"data":[0,0,0,0,0,0,0,0,0,0,0,0,0,0,0,0,0,0,0,0,0,0,0,0,0,0,0,0,0,0,0,0,0,0,0,0,0,0,0,0,0,0,0,0,0,0,0,0,0,0,0,0,0,0,0,0,0,0,-0.0234,-0.0234,0,-0.0282,-0.0282,-0.0283,-0.0344,-0.0345,-0.0346,-0.0347,-0.0424,-0.0425,-0.0426,0,0,0,0,0,0,0,0,0,0,0,0,0,-0.0222,-0.0222,-0.0234,-0.0235,-0.0235,-0.0281,-0.0282,-0.0283,-0.0344,-0.0345,-0.0346,-0.0347,-0.0423,-0.0425,-0.0426,0,0,0,0,0,0,0,0,0,0,0,0,0,-0.0245,-0.0222,-0.0234,-0.0271,-0.0274,-0.0281,-0.0282,-0.0283,-0.0344,-0.0345,-0.0347,-0.0348,-0.0423,-0.0424,-0.0426,-0.0409,0,0,-0.0432,-0.0432,0,0,0,0,0,0,0,0,-0.0244,-0.0245,-0.0265,-0.0268,-0.0272,-0.0308,-0.0306,-0.0326,-0.0343,-0.0318,-0.0347,-0.0349,-0.0386,-0.0391,-0.0397,-0.0413,-0.0416,-0.0432,-0.0433,-0.0434,-0.0434,0,0,0,0,0,0,0,-0.0242,-0.0244,-0.0254,-0.0265,-0.027,-0.0294,-0.0298,-0.031,-0.0345,-0.032,-0.0325,-0.0329,-0.0389,-0.0395,-0.04,-0.0417,-0.0432,-0.0433,-0.0434,-0.0435,-0.0449,-0.0448,0,0,0,0,0,0,-0.0231,-0.0242,-0.0252,-0.0255,-0.026,-0.0293,-0.0298,-0.0296,-0.0344,-0.0352,-0.0327,-0.0331,-0.0392,-0.0398,-0.0403,-0.0409,-0.0434,-0.0435,-0.0436,-0.0449,-0.0449,-0.0448,0,0,0,0,0,0,-0.0231,-0.0232,-0.025,-0.025,-0.0254,-0.0291,-0.0288,-0.0296,-0.031,-0.0349,-0.0358,-0.0335,-0.0393,-0.04,-0.0414,-0.0412,-0.0436,-0.0438,-0.045,-0.0449,-0.0448,-0.0406,0,0,0,0,0,0,-0.023,-0.0231,-0.0227,-0.0248,-0.0253,-0.0247,-0.0287,-0.0296,-0.031,-0.0315,-0.0358,-0.0367,-0.0395,-0.0411,-0.0416,-0.0414,-0.0439,-0.0451,-0.045,-0.0448,-0.0408,-0.0404,-0.04,0,0,0,0,0,-0.023,-0.0207,-0.0226,-0.0228,-0.0246,-0.0246,-0.025,-0.0283,-0.0308,-0.0304,-0.0337,-0.0366,-0.0407,-0.0411,-0.0417,-0.0417,-0.0452,-0.045,-0.0449,-0.041,-0.0405,-0.04,0,0,0,0,0,0,-0.0192,-0.0212,-0.0233,-0.0218,-0.0232,-0.0256,-0.0254,-0.0278,-0.03,-0.0311,-0.0354,-0.0363,-0.0375,-0.0395,-0.04,-0.0415,-0.0434,-0.0434,-0.0403,-0.0398,-0.0394,-0.0385,-0.044,0,0,0,0,0,-0.0183,-0.0179,-0.0201,-0.0189,-0.0194,-0.0226,-0.0232,-0.0253,-0.0275,-0.0287,-0.0317,-0.0348,-0.037,-0.0384,-0.0402,-0.0406,-0.0437,-0.0409,-0.0405,-0.0401,-0.0396,-0.043,-0.0428,-0.0443,-0.0443,-0.0443,0,0,-0.0165,-0.0176,-0.0174,-0.0182,-0.0198,-0.0195,-0.0233,-0.0235,-0.024,-0.029,-0.0303,-0.0331,-0.0366,-0.0376,-0.0383,-0.0395,-0.0416,-0.04,-0.0396,-0.0393,-0.0428,-0.0427,-0.0426,-0.0442,-0.0442,-0.0442,0,0,-0.0124,-0.0137,-0.0123,-0.0131,-0.0149,-0.0168,-0.0167,-0.0191,-0.0211,-0.0221,-0.0263,-0.0288,-0.0315,-0.0345,-0.0364,-0.0344,-0.039,-0.0348,-0.0324,-0.0356,-0.0355,-0.0355,-0.0407,-0.0412,-0.0349,-0.0349,-0.0349,0,-0.0105,-0.0094,-0.0117,-0.0107,-0.011,-0.0153,-0.0138,-0.0159,-0.0186,-0.019,-0.0218,-0.0262,-0.0302,-0.0319,-0.0324,-0.0336,-0.0365,-0.0343,-0.0351,-0.0352,-0.0352,-0.0405,-0.0411,-0.0347,-0.0347,-0.0348,-0.0348,0,-0.0059,-0.0055,-0.0043,-0.0052,-0.0053,-0.0045,-0.0075,-0.0081,-0.0112,-0.0133,-0.0152,-0.0207,-0.0231,-0.0255,-0.0291,-0.0309,-0.0334,-0.0341,-0.0366,-0.0348,-0.0406,-0.0412,-0.0344,-0.0345,-0.0345,-0.0346,0,0,-0.0019,-0.0012,-0.0013,-0.0004,-0.0025,-0.0015,-0.0019,-0.0026,-0.0012,-0.0064,-0.0052,-0.0125,-0.0154,-0.0177,-0.0226,-0.027,-0.032,-0.0308,-0.031,-0.0362,-0.0405,-0.0432,-0.0443,-0.0327,-0.0327,-0.0328,-0.0449,0,0.0014,0.005,0.0042,0.0071,0.0084,0.0057,0.0071,0.0058,0.0038,0.0042,-0.0032,-0.004,-0.0125,-0.0132,-0.0192,-0.0265,-0.0333,-0.0287,-0.0411,-0.0416,-0.0444,-0.0449,-0.0409,-0.0513,-0.0456,-0.0457,-0.0458,0,0.0043,0.0065,0.0104,0.0137,0.0145,0.016,0.0182,0.0187,0.0173,0.0164,0.0126,0.0081,0.0011,-0.006,-0.021,-0.0173,-0.0295,-0.0373,-0.038,-0.0422,-0.0454,-0.0518,-0.0528,-0.047,-0.0469,-0.0468,-0.0467,0,0.0061,0.0103,0.0138,0.0145,0.0178,0.02,0.0216,0.0222,0.0253,0.0238,0.0263,0.0175,0.0149,-0.0003,-0.0181,-0.0191,-0.0346,-0.0377,-0.0529,-0.0533,-0.0532,-0.0534,-0.0508,-0.0508,-0.0508,-0.0507,-0.0507,0,0.0081,0.0103,0.0156,0.0171,0.0238,0.0245,0.031,0.0316,0.0355,0.0411,0.0325,0.035,0.0164,0.0056,-0.0136,-0.0344,-0.0319,-0.053,-0.0563,-0.0517,-0.0517,-0.0498,-0.0496,-0.0512,-0.0511,-0.051,-0.0509,0,0.0065,0.0096,0.0144,0.021,0.024,0.0279,0.0372,0.043,0.0453,0.0523,0.0527,0.0487,0.0347,0.0133,-0.0095,-0.0268,-0.0474,-0.0569,-0.0514,-0.0538,-0.066,-0.0654,-0.0747,-0.0748,-0.075,-0.0751,-0.0753,0,0.0054,0.008,0.017,0.0222,0.0249,0.0325,0.0394,0.0458,0.0536,0.0609,0.0657,0.0567,0.0512,0.017,-0.0141,-0.0475,-0.0517,-0.0655,-0.068,-0.066,-0.0683,-0.0674,-0.0666,-0.0673,-0.0674,-0.0674,-0.0674,0,0.0046,0.0079,0.0133,0.0252,0.0334,0.0436,0.0542,0.0629,0.0721,0.0801,0.09,0.0867,0.0536,0.0237,-0.0218,-0.0432,-0.0592,-0.0674,-0.0655,-0.0611,-0.0599,-0.0618,-0.0611,-0.0677,-0.0677,-0.0677,-0.0676,-0.0676,0.0053,0.0101,0.0207,0.032,0.0422,0.0576,0.0695,0.0817,0.098,0.1096,0.1035,0.0973,0.0606,0.0031,-0.0298,-0.0622,-0.0648,-0.0769,-0.0765,-0.0761,-0.0723,-0.0713,-0.0807,-0.0807,-0.0808,-0.0808,-0.0808,0,0.012,0.0196,0.0286,0.0458,0.0596,0.0643,0.0838,0.0969,0.1188,0.1178,0.1209,0.0845,0.0477,0.0094,-0.0399,-0.0717,-0.0709,-0.0788,-0.0719,-0.0716,-0.0714,-0.0669,-0.0742,-0.0742,-0.0742,-0.0742,0,0,0.0175,0.0297,0.036,0.0615,0.0737,0.0972,0.1108,0.1257,0.1317,0.1314,0.123,0.0995,0.0548,0.0192,-0.0227,-0.0467,-0.0501,-0.05,-0.0528,-0.0395,-0.0387,-0.069,-0.0618,0,0,0,0,0]}],[{"header":{"parameterUnit":"m.s-1","parameterCategory":2,"la1":30.2991,"la2":30.254,"lo1":-89.0895,"lo2":-89.0444,"dy":0.0017,"dx":0.0017,"nx":28,"ny":28,"refTime":"2025-07-21T09:00:00:Z","depth":"4","parameterNumber":2,"parameterNumberName":"U-component_of_CURRENTS"},"data":[0,0,0,0,0,0,0,0,0,0,0,0,0,0,0,0,0,0,0,0,0,0,0,0,0,0,0,0,0,0,0,0,0,0,0,0,0,0,0,0,0,0,0,0,0,0,0,0,0,0,0,0,0,0,0,0,0,0,0.0921,0.0922,0,0.0997,0.0997,0.0998,0.1058,0.1059,0.106,0.106,0.1136,0.1137,0.1138,0,0,0,0,0,0,0,0,0,0,0,0,0,0.0805,0.0807,0.0921,0.0922,0.0924,0.0996,0.0997,0.0998,0.1058,0.1059,0.106,0.1061,0.1135,0.1137,0.1138,0,0,0,0,0,0,0,0,0,0,0,0,0,0.0863,0.0807,0.0921,0.0964,0.0969,0.0996,0.0997,0.0998,0.1058,0.1059,0.106,0.1061,0.1135,0.1137,0.1139,0.1126,0,0,0.1144,0.1145,0,0,0,0,0,0,0,0,0.086,0.0867,0.0957,0.0961,0.0966,0.1021,0.0984,0.1042,0.1057,0.1021,0.106,0.1062,0.1098,0.1103,0.1111,0.1129,0.1132,0.1144,0.1146,0.1146,0.1147,0,0,0,0,0,0,0,0.0856,0.0864,0.0949,0.0958,0.0964,0.0971,0.0981,0.0995,0.105,0.1025,0.103,0.1041,0.1101,0.1109,0.1113,0.1133,0.1144,0.1146,0.1147,0.1148,0.1251,0.1252,0,0,0,0,0,0,0.0851,0.086,0.0946,0.0951,0.0918,0.0973,0.0983,0.1,0.105,0.106,0.104,0.1044,0.1105,0.1111,0.1116,0.1201,0.1146,0.1148,0.1149,0.1249,0.1251,0.1253,0,0,0,0,0,0,0.0849,0.0858,0.0943,0.0909,0.0921,0.0974,0.0992,0.1001,0.1041,0.1063,0.1072,0.1075,0.1107,0.1114,0.1167,0.12,0.1149,0.1151,0.1247,0.125,0.1252,0.1307,0,0,0,0,0,0,0.0845,0.0857,0.0881,0.0909,0.0923,0.0981,0.0992,0.1002,0.1046,0.1052,0.1094,0.1101,0.1108,0.1164,0.1168,0.1202,0.1152,0.1245,0.1249,0.1251,0.1303,0.1311,0.1318,0,0,0,0,0,0.0841,0.0863,0.0881,0.0893,0.095,0.0982,0.099,0.1029,0.1046,0.1068,0.1106,0.1101,0.1186,0.1167,0.1172,0.1207,0.1244,0.1248,0.1251,0.13,0.1309,0.1317,0,0,0,0,0,0,0.0821,0.0872,0.0893,0.0931,0.0965,0.0993,0.102,0.1043,0.1088,0.1104,0.1121,0.113,0.1189,0.1189,0.1168,0.1246,0.1214,0.1219,0.125,0.1259,0.1266,0.1263,0.1154,0,0,0,0,0,0.0828,0.0864,0.0904,0.0936,0.0955,0.0991,0.1015,0.1043,0.1079,0.1102,0.1123,0.1158,0.1201,0.1225,0.125,0.129,0.1284,0.1316,0.1323,0.1329,0.1332,0.1351,0.136,0.1265,0.1265,0.1265,0,0,0.0825,0.0862,0.0881,0.0935,0.0964,0.0995,0.1009,0.1054,0.1091,0.1101,0.1155,0.1183,0.1218,0.127,0.1296,0.128,0.1356,0.1334,0.1339,0.1338,0.1355,0.1364,0.1372,0.1267,0.1267,0.1267,0,0,0.0828,0.0874,0.0902,0.0937,0.0994,0.1017,0.1036,0.1076,0.1113,0.1171,0.119,0.124,0.1292,0.1321,0.1347,0.1407,0.1393,0.1418,0.1455,0.1474,0.1482,0.1488,0.1499,0.1506,0.1423,0.1423,0.1423,0,0.0829,0.0872,0.0913,0.0949,0.0985,0.1029,0.1063,0.1102,0.1155,0.1187,0.1201,0.1293,0.1319,0.1391,0.142,0.1424,0.1428,0.142,0.1483,0.1489,0.1495,0.1504,0.1511,0.1426,0.1425,0.1425,0.1425,0,0.0843,0.0892,0.0912,0.0976,0.1015,0.1056,0.1112,0.1155,0.1204,0.1239,0.1323,0.1364,0.1424,0.144,0.1458,0.1516,0.1504,0.1488,0.1457,0.1508,0.1514,0.152,0.143,0.1429,0.1428,0.1427,0,0,0.081,0.0905,0.0917,0.0957,0.1041,0.107,0.1141,0.121,0.1263,0.1322,0.1388,0.1469,0.1494,0.1525,0.1547,0.1562,0.1614,0.155,0.155,0.1554,0.1655,0.1599,0.16,0.161,0.1611,0.1612,0.1644,0,0.0815,0.0881,0.0935,0.1004,0.104,0.1115,0.1176,0.1248,0.1315,0.1381,0.1446,0.1515,0.1529,0.157,0.1598,0.1607,0.1633,0.1607,0.161,0.161,0.155,0.1607,0.1617,0.1649,0.165,0.1651,0.1652,0,0.0808,0.0862,0.0929,0.1031,0.1057,0.1113,0.1223,0.1286,0.1389,0.1446,0.1526,0.1567,0.1635,0.1629,0.1684,0.1669,0.1678,0.1672,0.1673,0.1604,0.1567,0.1587,0.1663,0.1662,0.1661,0.166,0.166,0,0.0754,0.0856,0.0915,0.0951,0.1069,0.1131,0.1201,0.1308,0.1372,0.1487,0.154,0.162,0.1681,0.1697,0.1731,0.1707,0.1768,0.1728,0.1687,0.1682,0.1695,0.1688,0.1765,0.1765,0.1765,0.1765,0.1765,0,0.073,0.078,0.0905,0.0939,0.1016,0.1118,0.1214,0.1292,0.1415,0.1483,0.1577,0.1635,0.1702,0.1751,0.175,0.1754,0.1797,0.1704,0.1692,0.1719,0.1714,0.17,0.1692,0.1766,0.1766,0.1765,0.1765,0,0.0656,0.0741,0.0811,0.0947,0.0993,0.1053,0.1209,0.127,0.1403,0.1497,0.1536,0.1662,0.1721,0.1777,0.181,0.1784,0.1777,0.1771,0.1815,0.1803,0.1665,0.166,0.1696,0.1694,0.1693,0.1692,0.1691,0,0.0625,0.0655,0.0788,0.0837,0.091,0.1019,0.1087,0.1241,0.1307,0.1493,0.152,0.1641,0.1709,0.1719,0.1778,0.1789,0.1777,0.1769,0.1697,0.1676,0.1661,0.1658,0.1655,0.1689,0.1689,0.1688,0.1688,0,0.0556,0.0612,0.067,0.0763,0.0849,0.0926,0.1045,0.1087,0.1264,0.1383,0.1478,0.1541,0.1624,0.1663,0.1718,0.1712,0.1761,0.1755,0.1756,0.1687,0.1668,0.1654,0.1652,0.1683,0.1684,0.1684,0.1685,0,0.0502,0.052,0.0603,0.0686,0.0776,0.0837,0.0906,0.1012,0.1102,0.1317,0.1338,0.1479,0.1596,0.1626,0.1657,0.1675,0.1633,0.1574,0.1584,0.159,0.1546,0.1505,0.147,0,0,0,0,0,0.0439,0.0465,0.0525,0.0618,0.0703,0.0762,0.0881,0.0958,0.1119,0.1153,0.1257,0.1328,0.1423,0.1489,0.1483,0.1596,0.1626,0.1584,0.1559,0.1658,0.1663,0.1625,0,0,0,0,0,0,0.0404,0.0448,0.049,0.055,0.0603,0.0688,0.0761,0.0866,0.0901,0.1067,0.1112,0.1253,0.1342,0.1406,0.1455,0.1479,0.144,0.1678,0.1675,0.1655,0.166,0.1664,0.1626,0,0,0,0,0]},{"header":{"parameterUnit":"m.s-1","parameterCategory":2,"la1":30.2991,"la2":30.254,"lo1":-89.0895,"lo2":-89.0444,"dy":0.0017,"dx":0.0017,"nx":28,"ny":28,"refTime":"2025-07-21T09:00:00:Z","depth":"4","parameterNumber":3,"parameterNumberName":"V-component_of_CURRENTS"},"data":[0,0,0,0,0,0,0,0,0,0,0,0,0,0,0,0,0,0,0,0,0,0,0,0,0,0,0,0,0,0,0,0,0,0,0,0,0,0,0,0,0,0,0,0,0,0,0,0,0,0,0,0,0,0,0,0,0,0,0.0166,0.0166,0,0.011,0.0109,0.0108,0.0083,0.0083,0.0083,0.0083,0.0028,0.0027,0.0025,0,0,0,0,0,0,0,0,0,0,0,0,0,0.0215,0.0215,0.0166,0.0166,0.0165,0.011,0.0109,0.0108,0.0083,0.0083,0.0083,0.0083,0.0029,0.0027,0.0025,0,0,0,0,0,0,0,0,0,0,0,0,0,0.018,0.0215,0.0166,0.0146,0.0143,0.011,0.0109,0.0108,0.0083,0.0083,0.0083,0.0083,0.0029,0.0027,0.0025,0.0009,0,0,0.0018,0.0017,0,0,0,0,0,0,0,0,0.0182,0.0178,0.0149,0.0147,0.0144,0.0103,0.0106,0.0075,0.0083,0.0106,0.0083,0.0083,0.0053,0.0049,0.0038,0.0006,0.0004,0.0018,0.0016,0.0015,0.0015,0,0,0,0,0,0,0,0.0185,0.018,0.0144,0.0149,0.0145,0.0126,0.0122,0.01,0.008,0.0104,0.0102,0.0095,0.0052,0.0041,0.0037,0.0003,0.0018,0.0016,0.0014,0.0014,-0.0063,-0.0063,0,0,0,0,0,0,0.0193,0.0183,0.0146,0.0142,0.0164,0.0125,0.012,0.0117,0.008,0.0075,0.0095,0.0095,0.0045,0.004,0.0035,0.0022,0.0015,0.0013,0.0012,-0.0062,-0.0063,-0.0064,0,0,0,0,0,0,0.0194,0.0191,0.0148,0.0161,0.0154,0.0125,0.012,0.0115,0.0104,0.0074,0.0068,0.0089,0.0044,0.0038,0.0013,0.0019,0.0012,0.001,-0.0061,-0.0062,-0.0063,-0.0009,0,0,0,0,0,0,0.0196,0.0191,0.0192,0.0162,0.0154,0.0133,0.012,0.0114,0.0099,0.0098,0.0066,0.0061,0.0044,0.0017,0.0011,0.0016,0.0008,-0.0061,-0.0062,-0.0063,-0.001,-0.0008,-0.0007,0,0,0,0,0,0.0198,0.0197,0.0192,0.0187,0.0155,0.0133,0.0127,0.0106,0.0099,0.0096,0.0071,0.0062,0.0005,0.0014,0.0008,0.0013,-0.006,-0.0061,-0.0063,-0.0011,-0.0009,-0.0007,0,0,0,0,0,0,0.0214,0.0194,0.0187,0.0179,0.0161,0.0129,0.0122,0.0107,0.0084,0.0083,0.0055,0.0048,0.0028,0.0006,0.0018,-0.0017,-0.003,-0.0033,0.0011,0.0013,0.0015,0.0019,0.0007,0,0,0,0,0,0.0219,0.0217,0.0192,0.0186,0.0178,0.0151,0.0139,0.0125,0.0101,0.0091,0.007,0.0042,0.0015,0.0005,-0.0022,-0.0038,-0.0085,-0.0043,-0.0041,-0.0039,-0.0043,-0.0117,-0.0122,-0.0069,-0.0069,-0.0068,0,0,0.0224,0.0212,0.0211,0.0189,0.0173,0.0173,0.0144,0.0129,0.013,0.0088,0.0083,0.0048,0.001,-0.0008,-0.0019,-0.0023,-0.008,-0.0041,-0.0039,-0.0044,-0.0119,-0.0124,-0.0129,-0.007,-0.0069,-0.0069,0,0,0.0239,0.0222,0.0231,0.022,0.02,0.0184,0.0182,0.0155,0.0144,0.0128,0.0096,0.0061,0.0031,0.0001,-0.0017,-0.0026,-0.0071,-0.0032,-0.0013,-0.0085,-0.009,-0.0095,-0.0159,-0.017,-0.0027,-0.0027,-0.0027,0,0.0246,0.0251,0.0228,0.0235,0.0228,0.0195,0.0202,0.0188,0.0157,0.0137,0.0135,0.0057,0.0035,-0.0007,-0.0003,-0.002,-0.0069,-0.0011,-0.0081,-0.0087,-0.0093,-0.0158,-0.0171,-0.0025,-0.0025,-0.0025,-0.0026,0,0.0271,0.0276,0.0277,0.028,0.027,0.0265,0.0246,0.0232,0.0213,0.0187,0.0138,0.0095,0.0042,0.0035,0.002,-0.0033,-0.0057,-0.0071,-0.0081,-0.0095,-0.0163,-0.0177,-0.0021,-0.0022,-0.0023,-0.0024,0,0,0.0277,0.0293,0.0293,0.0297,0.029,0.0277,0.0282,0.0254,0.0232,0.0204,0.0161,0.0123,0.0078,0.0052,0.0017,-0.0032,-0.0104,-0.006,-0.0064,-0.0113,-0.0265,-0.0222,-0.0234,-0.0131,-0.0133,-0.0135,-0.0294,0,0.0299,0.0324,0.0326,0.034,0.0342,0.032,0.0319,0.029,0.0254,0.0207,0.0149,0.0097,0.0092,0.0055,0.0008,-0.0084,-0.014,-0.006,-0.0254,-0.0259,-0.0211,-0.0248,-0.0142,-0.0305,-0.0308,-0.0311,-0.0313,0,0.0316,0.0327,0.0354,0.035,0.0348,0.0356,0.0317,0.0311,0.0247,0.0214,0.0153,0.0096,0.0021,0.0014,-0.014,-0.009,-0.0172,-0.0236,-0.0245,-0.0233,-0.0243,-0.0292,-0.0339,-0.0337,-0.0335,-0.0333,-0.0332,0,0.0308,0.0334,0.0353,0.0357,0.0359,0.0358,0.0351,0.0306,0.0292,0.0207,0.0174,0.0068,0.0012,-0.0104,-0.021,-0.0194,-0.0384,-0.0387,-0.0429,-0.0428,-0.0441,-0.0435,-0.0509,-0.0508,-0.0508,-0.0508,-0.0507,0,0.0312,0.032,0.0353,0.0358,0.0366,0.036,0.035,0.0322,0.0281,0.026,0.0176,0.0131,-0.002,-0.0133,-0.0237,-0.0369,-0.0413,-0.0439,-0.0469,-0.0415,-0.0403,-0.0452,-0.0443,-0.0514,-0.0512,-0.0511,-0.051,0,0.0295,0.032,0.0339,0.0359,0.0366,0.0367,0.0377,0.0366,0.0324,0.0292,0.0267,0.0155,0.0012,-0.0135,-0.0336,-0.0393,-0.0536,-0.0573,-0.0506,-0.0528,-0.0531,-0.0518,-0.0656,-0.0656,-0.0656,-0.0655,-0.0655,0,0.0288,0.0303,0.0345,0.0367,0.0382,0.0394,0.0407,0.0387,0.0385,0.0318,0.0305,0.0163,0.0079,-0.0172,-0.0327,-0.0548,-0.0557,-0.0637,-0.0578,-0.0532,-0.0548,-0.0535,-0.0523,-0.0655,-0.0655,-0.0655,-0.0655,0,0.0277,0.03,0.0324,0.0373,0.0403,0.043,0.0449,0.0453,0.0432,0.04,0.033,0.0199,0.0041,-0.0151,-0.0323,-0.0472,-0.059,-0.0637,-0.0637,-0.0582,-0.0533,-0.0546,-0.0534,-0.0655,-0.0655,-0.0655,-0.0655,0,0.0273,0.029,0.0335,0.0372,0.0417,0.045,0.0462,0.0467,0.0459,0.0406,0.0382,0.0212,0.0107,-0.0114,-0.027,-0.0415,-0.0442,-0.0471,-0.0481,-0.0484,-0.0367,-0.0275,-0.0356,0,0,0,0,0,0.0262,0.0282,0.0327,0.037,0.042,0.0442,0.0483,0.0495,0.0487,0.0455,0.0423,0.0282,0.0054,-0.0059,-0.0197,-0.0276,-0.0477,-0.0441,-0.0518,-0.0653,-0.0653,-0.0539,0,0,0,0,0,0,0.0253,0.0292,0.0317,0.0363,0.0393,0.0441,0.0472,0.0476,0.0459,0.0437,0.0314,0.0258,0.0026,0.0126,-0.0201,-0.0248,-0.0309,-0.0554,-0.0556,-0.0653,-0.0653,-0.0653,-0.0536,0,0,0,0,0]}]]